Terminal Aerodrome Forecast
Issued by NWS

Home | Current Version | Previous Version | Text Only | Print | Product List | Glossary On
Versions: 1 2 3 4 5 6 7 8 9 10 11 12 13 14 15 16 17
000
FTUS42 KGSP 261736
TAFGMU
TAF
KGMU 261736Z 2618/2718 23004KT P6SM SCT060
     FM262000 23005KT P6SM VCTS SCT060CB
     FM270100 25004KT P6SM SCT070=

USA.gov is the U.S. government's official web portal to all federal, state and local government web resources and services.